Regional Weather Roundup
Issued by NWS

Home | Current Version | Previous Version | Graphics & Text | Print | Product List | Glossary Off
Versions: 1 2 3 4 5 6 7 8 9 10 11 12 13 14 15 16 17 18 19 20 21 22 23 24 25 26 27 28 29 30 31 32 33 34 35 36 37 38 39 40 41 42 43 44 45 46 47 48 49 50

000
ASUS43 KTOP 062359
RWRKS

WEATHER ROUNDUP FOR KANSAS
NATIONAL WEATHER SERVICE GOODLAND KS
700 PM CDT WED MAY 06 2015

NOTE:  "FAIR" INDICATES FEW OR NO CLOUDS BELOW 12,000 FEET WITH NO
SIGNIFICANT WEATHER AND/OR OBSTRUCTIONS TO VISIBILITY.

KSZ001>006-013>018-027>032-041>047-070100-
NORTHWEST KANSAS

CITY           SKY/WX    TMP DP  RH WIND       PRES   REMARKS
GOODLAND       CLOUDY    66  56  70 SW15      29.61F
6HR MIN TEMP:  55; 6HR MAX TEMP:  66; 6HR PCP:  0.20;

HAYS           PTSUNNY   79  55  44 S18G26    29.59R
HILL CITY      MOSUNNY   73  50  44 W10       29.58S
6HR MIN TEMP:  67; 6HR MAX TEMP:  77;

RUSSELL        PTSUNNY   76  61  59 S24G33    29.58R
6HR MIN TEMP:  61; 6HR MAX TEMP:  78; 6HR PCP:  0.27;

$$

KSZ061>065-074>080-084>089-070100-
SOUTHWEST KANSAS

CITY           SKY/WX    TMP DP  RH WIND       PRES   REMARKS
DODGE CITY     SUNNY     79  51  37 S23G35    29.62F
6HR MIN TEMP:  75; 6HR MAX TEMP:  81;

ELKHART          N/A     79  48  33 S20         N/A
GARDEN CITY    CLOUDY    70  52  52 S14       29.62R
6HR MIN TEMP:  69; 6HR MAX TEMP:  79;

GREAT BEND     PTSUNNY   75  61  60 S22       29.60F
LIBERAL        MOSUNNY   79  48  34 SW22G31   29.65R
$$

KSZ066>073-081>083-090>101-070100-
SOUTHEAST KANSAS

CITY           SKY/WX    TMP DP  RH WIND       PRES   REMARKS
CHANUTE        MOSUNNY   74  60  61 S21G28    29.83F
6HR MIN TEMP:  67; 6HR MAX TEMP:  77; 6HR PCP: TRACE;

COFFEYVILLE    PTSUNNY   74  61  63 SE14      29.84F
6HR MIN TEMP:  69; 6HR MAX TEMP:  79;

HUTCHINSON     PTSUNNY   72  65  78 SE31G39   29.66F
6HR MIN TEMP:  69; 6HR MAX TEMP:  79; 6HR PCP: TRACE;

MEDICINE LODGE   N/A     72  66  81 S12G28    29.67S
NEWTON         PTSUNNY   70  63  78 S25G33    29.72F
PARSONS        PTSUNNY   75  61  61 SE8G20    29.85F
6HR MIN TEMP:  68; 6HR MAX TEMP:  78; 6HR PCP: TRACE;

WICHITA INTL   CLOUDY    72  65  78 S31G41    29.72F
6HR MIN TEMP:  66; 6HR MAX TEMP:  76; 6HR PCP:  0.02;

WICHITA JABRA  CLOUDY    72  65  78 S25G36    29.72F
6HR MIN TEMP:  66; 6HR MAX TEMP:  75;

WICHITA MCCONL MOSUNNY   73  66  78 SE23G35   29.74F
WINFIELD       CLOUDY    71  66  84 SE13      29.77F
6HR MIN TEMP:  69; 6HR MAX TEMP:  76;

$$

KSZ007>012-019>026-033>040-048>060-102>105-070100-
NORTHEAST KANSAS

CITY           SKY/WX    TMP DP  RH WIND       PRES   REMARKS
CONCORDIA      CLOUDY    69  64  84 SE35G49   29.61F THUNDER
6HR MIN TEMP:  68; 6HR MAX TEMP:  71; 6HR PCP:  0.08;

EMPORIA        CLOUDY    72  63  73 SE21G30   29.79S
6HR MIN TEMP:  67; 6HR MAX TEMP:  73;

LAWRENCE       CLOUDY    73  62  68 SE16      29.83S
6HR MIN TEMP:  65; 6HR MAX TEMP:  73; 6HR PCP:  0.10;

MANHATTAN      PTSUNNY   73  64  73 S26G40    29.71F
6HR MIN TEMP:  70; 6HR MAX TEMP:  74;

OLATHE IND     CLOUDY    74  61  63 SE17G24   29.86S
6HR MIN TEMP:  62; 6HR MAX TEMP:  75; 6HR PCP:  0.09;

OLATHE EXE     PTSUNNY   74  60  61 S20G26    29.85S
6HR MIN TEMP:  62; 6HR MAX TEMP:  75; 6HR PCP:  0.12;

SALINA         TSTM      70  63  78 SE32G40   29.64F
6HR MIN TEMP:  69; 6HR MAX TEMP:  77; 6HR PCP:  0.02;

TOPEKA BILLARD CLOUDY    72  63  73 SE15      29.81S
6HR MIN TEMP:  70; 6HR MAX TEMP:  73;

TOPEKA FORBES  CLOUDY    73  62  68 SE15      29.80S
6HR MIN TEMP:  69; 6HR MAX TEMP:  73;

$$


USA.gov is the U.S. government's official web portal to all federal, state and local government web resources and services.